Regional Weather Roundup
Issued by NWS

Home | Current Version | Previous Version | Text Only | Print | Product List | Glossary On
Versions: 1 2 3 4 5 6 7 8 9 10 11 12 13 14 15 16 17 18 19 20 21 22 23 24 25 26 27 28 29 30 31 32 33 34 35 36 37 38 39 40 41 42 43 44 45 46 47 48 49 50
000
ASUS43 KDTX 071301
RWRMI
MICHIGAN HOURLY REGIONAL WEATHER ROUNDUP
NATIONAL WEATHER SERVICE DETROIT/PONTIAC MI
800 AM EST SUN FEB 07 2016

NOTE: "FAIR" INDICATES FEW OR NO CLOUDS BELOW 12,000 FEET WITH NO
SIGNIFICANT WEATHER AND/OR OBSTRUCTION TO VISIBILITY.

MIZ047>049-052>055-059>063-066>070-074>076-081>083-071400-
SOUTHEAST LOWER MICHIGAN

CITY           SKY/WX    TMP DP  RH WIND       PRES   REMARKS
ADRIAN         CLOUDY    31  26  82 SW5       29.96F WCI  26
ALMA           CLOUDY    34  31  88 S8        29.88F WCI  27
ANN ARBOR      CLOUDY    28  25  88 SW6       29.96F WCI  22
BAD AXE        CLOUDY    33  28  82 S10       29.93F WCI  25
CARO           CLOUDY    34  28  79 S6        29.92F WCI  29
DETROIT CITY   CLOUDY    32  25  75 S6        29.97F WCI  26
DETROIT        CLOUDY    30  25  81 S6        29.98F WCI  24
FLINT          MOCLDY    35  27  72 S6        29.93F WCI  30
GROSSE ILE     CLOUDY    34  28  80 S5        29.97F WCI  30
HILLSDALE      CLOUDY    30  26  82 S7        29.93F WCI  24
HOWELL         MOCLDY    32  28  84 S6        29.92F WCI  26

CITY           SKY/WX    TMP DP  RH WIND       PRES   REMARKS
JACKSON        CLOUDY    33  25  72 S7        29.92F WCI  27
LAMBERTVILLE   PTCLDY    32  26  77 S3        29.98F
LANSING        CLOUDY    34  27  75 S9        29.91F WCI  27
LAPEER         MOCLDY    32  28  85 S7        29.93F WCI  26
MASON          CLOUDY    33  28  80 S5        29.92F WCI  29
MONROE         CLOUDY    31  25  78 S3        29.97F
MT. CLEMENS    MOCLDY    28  26  90 S6        29.96F WCI  22
PONTIAC        CLOUDY    30  25  81 S6        29.93F WCI  24
PORT HOPE        N/A     34  27  75 S7        29.91F WCI  28
PORT HURON     PTCLDY    30  28  93 S7        29.97F FOG     WCI  23
TRI CITIES     CLOUDY    35  28  75 S10       29.90F WCI  27
MIDLAND        MOCLDY    33  28  80 S5        29.88F WCI  29
TROY           PTCLDY    32  26  77 S6        29.98F WCI  26
SAGINAW HB     CLOUDY    34  30  86 S8        29.90F WCI  27
$$
MIZ043>046-050>051-056>058-064>065-071>073-077>080-071400-
SOUTHWEST LOWER MICHIGAN

CITY           SKY/WX    TMP DP  RH WIND       PRES   REMARKS
BATTLE CREEK   CLOUDY    34  27  75 S10       29.91F WCI  26
BENTON HARBOR  PTCLDY    38  28  67 S13       29.90F WCI  30
BIG RAPIDS     CLOUDY    33  31  93 S5        29.82F WCI  28
COLDWATER      CLOUDY    35  27  74 S6        29.93F WCI  30
FREMONT        CLOUDY    34  32  92 S7        29.82F WCI  28
HOLLAND        CLOUDY    36  29  75 S10       29.88F WCI  28
GRAND RAPIDS   CLOUDY    35  29  78 S12       29.88F WCI  27
IONIA          CLOUDY    34  28  80 S10G16    29.88S WCI  26
KALAMAZOO      CLOUDY    34  27  75 S10       29.91F WCI  26
LUDINGTON      CLOUDY    38  32  79 S13G18    29.77F WCI  30
MARSHALL       CLOUDY    34  27  77 S6        29.91F WCI  29
MOUNT PLEASANT CLOUDY    34  29  81 S7        29.85F WCI  28
MUSKEGON       CLOUDY    38  30  73 S15       29.84F WCI  29
SOUTH HAVEN    CLOUDY    37  29  72 S9        29.89F WCI  31
$$
MIZ016>042-071400-
NORTHERN LOWER MICHIGAN

CITY           SKY/WX    TMP DP  RH WIND       PRES   REMARKS
ALPENA         CLOUDY    30  26  85 S10       29.86F WCI  21
BEAVER ISLAND  CLOUDY    35  31  85 S5        29.74S WCI  31
BELLAIRE       CLOUDY    37  31  80 S7        29.78F WCI  31
CADILLAC       CLOUDY    33  30  89 S12G17    29.78F WCI  24
CHARLEVOIX     CLOUDY    35  30  83 S10       29.79S WCI  27
FRANKFORT      CLOUDY    37  31  79 S9        29.76S WCI  30
GAYLORD        PTCLDY    32  28  85 S14       29.77F FOG     WCI  22
GRAYLING       CLOUDY    32  29  90 S6        29.81F FOG     WCI  26
HARBOR SPRINGS CLOUDY    34  28  80 S7        29.77F WCI  28
HOUGHTON LAKE  CLOUDY    30  27  88 S10       29.82F WCI  21
MANISTEE       CLOUDY    36  28  75 SE6       29.78S WCI  31
OSCODA         CLOUDY    33  29  85 S14       29.88F WCI  23
PELLSTON       CLOUDY    30  26  85 SE6       29.78F WCI  24
ROGERS CITY    CLOUDY    30  26  86 S8        29.84F WCI  22
TRAVERSE CITY  CLOUDY    38  29  70 VRB3      29.76F
$$
MIZ007>008-015-071400-
EASTERN UPPER MICHIGAN

CITY           SKY/WX    TMP DP  RH WIND       PRES   REMARKS
KINROSS        CLOUDY    30  30 100 SE15      29.77F WCI  19
MACKINAC ISLAN CLOUDY    30  27  88 SE8G16    29.77S WCI  23
NEWBERRY       CLOUDY    32  31  96 S10       29.71S FOG     WCI  24
S. S. MARIE    CLOUDY    31  27  85 SE9       29.78F WCI  23
$$
MIZ004>006-011>014-085-071400-
CENTRAL UPPER MICHIGAN

CITY           SKY/WX    TMP DP  RH WIND       PRES   REMARKS
MANISTIQUE     DRIZZLE   36  33  92 S10       29.70F WCI  28
ESCANABA       CLOUDY    34  30  86 S8        29.67F VSB 1   WCI  27
MENOMINEE      CLOUDY    34  28  80 SW8       29.67F WCI  27
SAWYER-GWINN   LGT SNOW  27  27 100 S14       29.60F WCI  15
$$
MIZ001>003-009>011-084-071400-
WESTERN UPPER MICHIGAN

CITY           SKY/WX    TMP DP  RH WIND       PRES   REMARKS
IRON MOUNTAIN  CLOUDY    29  26  89 S7        29.60F FOG     WCI  22
HOUGHTON       LGT SNOW  30  27  88 S6        29.54F FOG     WCI  24
COPPER HARBOR    N/A     32  30  92 SW9       29.56F WCI  24
IRONWOOD       CLOUDY    30  28  93 S10       29.49S WCI  21
$$

ABBREVIATIONS USED IN REMARKS
   TC - TEMPERATURE IN CELSIUS
  WCI - WIND CHILL INDEX
   HX - HEAT INDEX
  VSB - VISIBILITY





USA.gov is the U.S. government's official web portal to all federal, state and local government web resources and services.